• In Schweiz
  • Länderverzeichnis
  • Für 7 Tage
  • Wassertemperatur
  • Satellitenkarten
  • Wetterkarte
  • Widgets
  • user-avatar
    Anmelden

    Stündliche Wetter Gornoe

    Heute, 25 September, Dienstag

    Zeit Temperatur Niederschläge Wind Luftdruck Luftfeuchtigkeit
    00:00 +13°C° 0 mm 2 m/S 735 mmHg 91%
    01:00 +13°C° 0 mm 2 m/S 735 mmHg 91%
    02:00 +12°C° 0 mm 3 m/S 735 mmHg 90%
    03:00 +11°C° 0 mm 3 m/S 735 mmHg 90%
    04:00 +10°C° 0 mm 1 m/S 735 mmHg 88%
    05:00 +10°C° 0 mm 2 m/S 735 mmHg 85%
    06:00 +10°C° 0 mm 3 m/S 735 mmHg 83%
    07:00 +10°C° 0 mm 3 m/S 735 mmHg 80%
    08:00 +12°C° 0 mm 4 m/S 735 mmHg 72%
    09:00 +14°C° 0 mm 5 m/S 735 mmHg 65%
    10:00 +17°C° 0 mm 6 m/S 735 mmHg 58%
    11:00 +17°C° 0 mm 6 m/S 735 mmHg 56%
    12:00 +19°C° 0 mm 6 m/S 735 mmHg 53%
    13:00 +20°C° 0 mm 7 m/S 735 mmHg 51%
    14:00 +20°C° 0 mm 6 m/S 735 mmHg 53%
    15:00 +20°C° 0 mm 5 m/S 735 mmHg 55%
    16:00 +19°C° 0 mm 5 m/S 735 mmHg 56%
    17:00 +18°C° 0 mm 4 m/S 735 mmHg 60%
    18:00 +17°C° 0 mm 4 m/S 735 mmHg 63%
    19:00 +14°C° 0 mm 4 m/S 735 mmHg 67%
    20:00 +14°C° 0 mm 4 m/S 735 mmHg 69%
    21:00 +13°C° 0 mm 3 m/S 735 mmHg 71%
    22:00 +13°C° 0 mm 3 m/S 735 mmHg 73%
    23:00 +12°C° 0 mm 3 m/S 735 mmHg 73%

    Morgen, 26 September, Mittwoch

    Zeit Temperatur Niederschläge Wind Luftdruck Luftfeuchtigkeit
    00:00 +12°C° 0 mm 3 m/S 735 mmHg 74%
    01:00 +12°C° 0 mm 3 m/S 735 mmHg 74%
    02:00 +11°C° 0.2 mm 3 m/S 735 mmHg 75%
    03:00 +11°C° 0.2 mm 3 m/S 735 mmHg 75%
    04:00 +11°C° 0.2 mm 3 m/S 735 mmHg 75%
    05:00 +11°C° 0.6 mm 4 m/S 735 mmHg 77%
    06:00 +11°C° 0.6 mm 4 m/S 735 mmHg 78%
    07:00 +10°C° 0.6 mm 5 m/S 735 mmHg 80%
    08:00 +12°C° 0.2 mm 5 m/S 735 mmHg 77%
    09:00 +13°C° 0.2 mm 5 m/S 735 mmHg 75%
    10:00 +13°C° 0.2 mm 5 m/S 735 mmHg 73%
    11:00 +14°C° 0 mm 5 m/S 736 mmHg 71%
    12:00 +14°C° 0 mm 5 m/S 736 mmHg 70%
    13:00 +14°C° 0 mm 4 m/S 736 mmHg 68%
    14:00 +14°C° 0.1 mm 4 m/S 736 mmHg 71%
    15:00 +13°C° 0.1 mm 3 m/S 736 mmHg 73%
    16:00 +13°C° 0.1 mm 3 m/S 737 mmHg 76%
    17:00 +12°C° 0.2 mm 3 m/S 737 mmHg 80%
    18:00 +12°C° 0.2 mm 2 m/S 737 mmHg 85%
    19:00 +10°C° 0.2 mm 2 m/S 737 mmHg 90%
    20:00 +10°C° 0.2 mm 2 m/S 737 mmHg 92%
    21:00 +10°C° 0.2 mm 1 m/S 737 mmHg 93%
    22:00 +10°C° 0.2 mm 1 m/S 737 mmHg 95%
    23:00 +10°C° 0.2 mm 1 m/S 737 mmHg 95%

    übermorgen, 27 September, Donnerstag

    Zeit Temperatur Niederschläge Wind Luftdruck Luftfeuchtigkeit
    00:00 +9°C° 0.2 mm 1 m/S 736 mmHg 96%
    01:00 +9°C° 0.2 mm 1 m/S 736 mmHg 96%
    02:00 +9°C° 0.6 mm 1 m/S 736 mmHg 96%
    03:00 +8°C° 0.6 mm 2 m/S 736 mmHg 96%
    04:00 +8°C° 0.6 mm 2 m/S 735 mmHg 96%
    05:00 +7°C° 0.3 mm 2 m/S 735 mmHg 95%
    06:00 +7°C° 0.3 mm 2 m/S 735 mmHg 95%
    07:00 +7°C° 0.3 mm 2 m/S 735 mmHg 95%
    08:00 +7°C° 0 mm 3 m/S 735 mmHg 92%
    09:00 +8°C° 0 mm 3 m/S 735 mmHg 89%
    10:00 +8°C° 0 mm 3 m/S 734 mmHg 85%
    11:00 +9°C° 0.1 mm 3 m/S 734 mmHg 82%
    12:00 +8°C° 0.1 mm 4 m/S 734 mmHg 79%
    13:00 +10°C° 0.1 mm 4 m/S 734 mmHg 75%
    14:00 +8°C° 0.1 mm 4 m/S 733 mmHg 75%
    15:00 +8°C° 0.1 mm 4 m/S 733 mmHg 75%
    16:00 +8°C° 0.1 mm 4 m/S 733 mmHg 74%
    17:00 +7°C° 0 mm 4 m/S 732 mmHg 76%
    18:00 +6°C° 0 mm 4 m/S 732 mmHg 78%
    19:00 +5°C° 0 mm 4 m/S 732 mmHg 79%
    20:00 +5°C° 0 mm 4 m/S 731 mmHg 79%
    21:00 +5°C° 0 mm 4 m/S 731 mmHg 78%
    22:00 +4°C° 0 mm 4 m/S 730 mmHg 77%
    23:00 +3°C° 0 mm 5 m/S 729 mmHg 76%

    28 September, Freitag

    Zeit Temperatur Niederschläge Wind Luftdruck Luftfeuchtigkeit
    00:00 +5°C° 0 mm 5 m/S 729 mmHg 75%
    01:00 +5°C° 0 mm 5 m/S 728 mmHg 74%
    02:00 +3°C° 0.4 mm 5 m/S 727 mmHg 78%
    03:00 +3°C° 0.4 mm 5 m/S 726 mmHg 81%
    04:00 +3°C° 0.4 mm 6 m/S 726 mmHg 85%
    05:00 +3°C° 0.8 mm 6 m/S 725 mmHg 87%
    06:00 +3°C° 0.8 mm 5 m/S 725 mmHg 88%
    07:00 +3°C° 0.8 mm 5 m/S 725 mmHg 90%
    08:00 +3°C° 0.3 mm 5 m/S 725 mmHg 89%
    09:00 +3°C° 0.3 mm 5 m/S 725 mmHg 88%
    10:00 +5°C° 0.3 mm 5 m/S 726 mmHg 87%
    11:00 +5°C° 0.1 mm 5 m/S 727 mmHg 85%
    12:00 +4°C° 0.1 mm 6 m/S 727 mmHg 83%
    13:00 +5°C° 0.1 mm 6 m/S 728 mmHg 80%
    14:00 +5°C° 0.1 mm 5 m/S 728 mmHg 80%
    15:00 +5°C° 0.1 mm 5 m/S 729 mmHg 81%
    16:00 +5°C° 0.1 mm 5 m/S 730 mmHg 81%
    17:00 +5°C° 0.1 mm 5 m/S 730 mmHg 81%
    18:00 +5°C° 0.1 mm 4 m/S 730 mmHg 82%
    19:00 +4°C° 0.1 mm 4 m/S 730 mmHg 83%
    20:00 +4°C° 0 mm 4 m/S 730 mmHg 83%
    21:00 +4°C° 0 mm 4 m/S 730 mmHg 84%
    22:00 +4°C° 0 mm 3 m/S 730 mmHg 85%
    23:00 +4°C° 0 mm 4 m/S 730 mmHg 84%

    29 September, Samstag

    Zeit Temperatur Niederschläge Wind Luftdruck Luftfeuchtigkeit
    00:00 +5°C° 0 mm 5 m/S 729 mmHg 84%
    01:00 +5°C° 0 mm 5 m/S 729 mmHg 83%
    02:00 +4°C° 0.4 mm 6 m/S 728 mmHg 82%
    03:00 +4°C° 0.4 mm 7 m/S 728 mmHg 81%
    04:00 +5°C° 0.4 mm 7 m/S 727 mmHg 80%
    05:00 +5°C° 1.3 mm 8 m/S 726 mmHg 81%
    06:00 +5°C° 1.3 mm 8 m/S 725 mmHg 83%
    07:00 +5°C° 1.3 mm 9 m/S 725 mmHg 84%
    08:00 +6°C° 1.1 mm 9 m/S 725 mmHg 84%
    09:00 +6°C° 1.1 mm 9 m/S 726 mmHg 84%
    10:00 +7°C° 1.1 mm 9 m/S 726 mmHg 84%
    11:00 +7°C° 0.1 mm 9 m/S 727 mmHg 79%
    12:00 +6°C° 0.1 mm 8 m/S 728 mmHg 74%
    13:00 +6°C° 0.1 mm 7 m/S 730 mmHg 69%
    14:00 +6°C° 0 mm 7 m/S 731 mmHg 70%
    15:00 +5°C° 0 mm 6 m/S 732 mmHg 70%
    16:00 +5°C° 0 mm 6 m/S 732 mmHg 70%
    17:00 +5°C° 0 mm 5 m/S 733 mmHg 71%
    18:00 +3°C° 0 mm 5 m/S 734 mmHg 72%
    19:00 +2°C° 0 mm 5 m/S 734 mmHg 73%
    20:00 +1°C° 0 mm 4 m/S 735 mmHg 73%
    21:00 +2°C° 0 mm 3 m/S 736 mmHg 73%
    22:00 +1°C° 0 mm 3 m/S 736 mmHg 74%
    23:00 +1°C° 0 mm 3 m/S 737 mmHg 76%

    30 September, Sonntag

    Zeit Temperatur Niederschläge Wind Luftdruck Luftfeuchtigkeit
    00:00 0°C° 0 mm 3 m/S 737 mmHg 79%
    01:00 0°C° 0 mm 3 m/S 738 mmHg 81%
    02:00 -1°C° 0 mm 2 m/S 738 mmHg 83%
    03:00 -1°C° 0 mm 2 m/S 738 mmHg 86%
    04:00 -1°C° 0 mm 2 m/S 739 mmHg 88%
    05:00 -1°C° 0 mm 2 m/S 739 mmHg 86%
    06:00 -1°C° 0 mm 2 m/S 739 mmHg 83%
    07:00 +1°C° 0 mm 2 m/S 740 mmHg 81%
    08:00 +2°C° 0 mm 2 m/S 740 mmHg 76%
    09:00 +2°C° 0 mm 3 m/S 740 mmHg 71%
    10:00 +3°C° 0 mm 3 m/S 740 mmHg 66%
    11:00 +3°C° 0 mm 3 m/S 740 mmHg 65%
    12:00 +4°C° 0 mm 3 m/S 740 mmHg 63%
    13:00 +4°C° 0 mm 3 m/S 740 mmHg 62%
    14:00 +4°C° 0 mm 3 m/S 740 mmHg 62%
    15:00 +5°C° 0 mm 2 m/S 740 mmHg 63%
    16:00 +5°C° 0 mm 2 m/S 740 mmHg 64%
    17:00 +4°C° 0 mm 2 m/S 740 mmHg 68%
    18:00 +4°C° 0 mm 2 m/S 740 mmHg 72%
    19:00 +4°C° 0 mm 1 m/S 740 mmHg 76%
    20:00 +4°C° 0 mm 1 m/S 740 mmHg 76%
    21:00 +4°C° 0 mm 1 m/S 740 mmHg 76%
    22:00 +4°C° 0 mm 1 m/S 741 mmHg 76%
    23:00 +3°C° 0 mm 1 m/S 741 mmHg 77%
    Mehr zeigen